Location: Umburanas
(4.5000°S, 37.9667°W)
Time: 06:33:15
(UTC+00:00)

YAOGAN 6 - Pass Details

Date: 19 November 2019
Orbit: 467 x 504 km, 97.0° (Epoch: 10 December)

Event Time Altitude Azimuth Distance (km) Brightness Sun altitude
Rises 21:11:52 0° 170° (S) 2,547 6.4 -11.3°
Reaches altitude 10° 21:13:57 10° 170° (S) 1,658 5.4 -11.8°
Maximum altitude 21:17:31 86° 257° (WSW) 481 2.5 -12.6°
Drops below altitude 10° 21:21:01 10° 348° (NNW) 1,627 5.1 -13.4°
Sets 21:23:02 0° 349° (NNW) 2,495 6.1 -13.9°
